Location: Calvatone
(45.1167°N, 10.4333°E)
Time: 12:28:01
(UTC+00:00)

Cosmos 1844 Rocket - Pass Details

Date: 28 January 2023
Orbit: 825 x 843 km, 71.0° (Epoch: 29 March)

Event Time Altitude Azimuth Distance (km) Brightness Sun altitude
Rises 17:42:07 0° 341° (NNW) 3,377 5.9 -14.6°
Reaches altitude 10° 17:45:05 10° 356° (N) 2,438 5.0 -15.1°
Maximum altitude 17:49:29 23° 48° (NE) 1,681 3.8 -15.9°
Enters shadow 17:50:08 23° 59° (ENE) 1,700 3.7 -16.0°
